Weather History for KCNC - November, 2013

Change the Weather History Date:

Saturday, November 2, 2013

  Actual Average Record
Temperature  
Mean Temperature 44 °F -  
Max Temperature 53 °F 55 °F 77 °F (1964)
Min Temperature 35 °F 36 °F 9 °F (1951)
Degree Days  
Heating Degree Days 21    
Moisture  
Dew Point 35 °F    
Average Humidity 71    
Maximum Humidity 87    
Minimum Humidity 41    
Precipitation  
Precipitation 0.00 in - - ()
Sea Level Pressure  
Sea Level Pressure 30.06 in    
Wind  
Wind Speed 11 mph (WNW)    
Max Wind Speed 18 mph    
Max Gust Speed 25 mph    
Visibility 10 miles    
Events Snow    
Averages and records for this station are not official NWS values.
T = Trace of Precipitation, MM = Missing Value Source: NWS Daily Summary

Daily Weather History Graph

Daily Weather History Graph

Search for Another Location

Airport or City:

Trip Planner

Search our weather history database for the weather conditions in past years. The results will help you decide how hot, cold, wet, or windy it might be!

Date:

Astronomy

Nov. 02, 2013 Rise Set
Actual Time 7:45 AM CDT 6:07 PM CDT
Civil Twilight 7:17 AM CDT 6:36 PM CDT
Nautical Twilight 6:44 AM CDT 7:08 PM CDT
Astronomical Twilight 6:12 AM CDT 7:40 PM CDT
Moon 6:43 AM CDT (11/2) 5:39 PM CDT (11/2)
Length of Visible Light 11h 19m
Length of Day
10h 21m
Waning Crescent, 1% of the Moon is Illuminated
Nov 2
Waning Crescent
Nov 3
New
Nov 9
First Quarter
Nov 17
Full
Nov 25
Last Quarter

Hourly Weather History & Observations

Time (CDT) Temp. Windchill Dew Point Humidity Pressure Visibility Wind Dir Wind Speed Gust Speed Precip Events Conditions
12:15 AM 42.8 °F 36.6 °F 39.2 °F 87% 29.88 in 10.0 mi WNW 11.5 mph - N/A   Mostly Cloudy
12:35 AM 42.8 °F 37.5 °F 39.2 °F 87% 29.88 in 10.0 mi WNW 9.2 mph - N/A   Mostly Cloudy
12:55 AM 42.8 °F 37.5 °F 39.2 °F 87% 29.89 in 10.0 mi WNW 9.2 mph - N/A   Mostly Cloudy
1:15 AM 42.8 °F 37.5 °F 39.2 °F 87% 29.89 in 10.0 mi WNW 9.2 mph 16.1 mph N/A   Overcast
1:35 AM 44.6 °F 38.4 °F 39.2 °F 81% 29.90 in 10.0 mi WNW 12.7 mph - N/A   Overcast
1:55 AM 44.6 °F 38.8 °F 39.2 °F 81% 29.91 in 10.0 mi WNW 11.5 mph - N/A   Overcast
2:15 AM 44.6 °F 39.2 °F 41.0 °F 87% 29.91 in 10.0 mi NW 10.4 mph - N/A   Overcast
2:35 AM 44.6 °F 39.7 °F 41.0 °F 87% 29.92 in 10.0 mi NW 9.2 mph - N/A   Overcast
2:55 AM 44.6 °F 39.2 °F 39.2 °F 81% 29.92 in 10.0 mi NW 10.4 mph - N/A   Overcast
3:15 AM 44.6 °F 38.8 °F 39.2 °F 81% 29.93 in 10.0 mi NW 11.5 mph - N/A   Overcast
3:35 AM 44.6 °F 38.4 °F 39.2 °F 81% 29.93 in 10.0 mi NW 12.7 mph - N/A   Overcast
3:55 AM 44.6 °F 38.4 °F 39.2 °F 81% 29.94 in 10.0 mi NW 12.7 mph 19.6 mph N/A   Overcast
4:15 AM 44.6 °F 38.1 °F 39.2 °F 81% 29.94 in 10.0 mi NW 13.8 mph - N/A   Overcast
4:35 AM 44.6 °F 38.1 °F 39.2 °F 81% 29.94 in 10.0 mi NW 13.8 mph - N/A   Overcast
4:55 AM 44.6 °F 38.1 °F 39.2 °F 81% 29.96 in 10.0 mi NW 13.8 mph - N/A   Overcast
5:15 AM 44.6 °F 38.1 °F 39.2 °F 81% 29.97 in 10.0 mi NW 13.8 mph - N/A   Overcast
5:35 AM 44.6 °F 38.1 °F 39.2 °F 81% 29.98 in 10.0 mi NW 13.8 mph - N/A   Overcast
5:55 AM 42.8 °F 36.6 °F 39.2 °F 87% 30.00 in 10.0 mi NW 11.5 mph - N/A   Overcast
6:15 AM 42.8 °F 36.6 °F 39.2 °F 87% 30.00 in 10.0 mi NW 11.5 mph - N/A   Overcast
6:35 AM 42.8 °F 36.6 °F 39.2 °F 87% 30.01 in 10.0 mi NW 11.5 mph - N/A   Overcast
6:55 AM 42.8 °F 38.0 °F 39.2 °F 87% 30.02 in 10.0 mi NW 8.1 mph 13.8 mph N/A   Overcast
7:15 AM 42.8 °F 37.5 °F 39.2 °F 87% 30.03 in 10.0 mi NW 9.2 mph - N/A   Overcast
7:35 AM 42.8 °F 37.0 °F 39.2 °F 87% 30.04 in 10.0 mi WNW 10.4 mph - N/A   Overcast
7:55 AM 42.8 °F 37.0 °F 39.2 °F 87% 30.04 in 9.0 mi NW 10.4 mph - N/A   Overcast
8:15 AM 42.8 °F 36.2 °F 39.2 °F 87% 30.05 in 9.0 mi NW 12.7 mph - N/A   Overcast
8:35 AM 42.8 °F 37.0 °F 39.2 °F 87% 30.05 in 9.0 mi NW 10.4 mph - N/A   Overcast
8:55 AM 44.6 °F 38.1 °F 39.2 °F 81% 30.07 in 9.0 mi NW 13.8 mph - N/A   Mostly Cloudy
9:15 AM 44.6 °F 37.8 °F 39.2 °F 81% 30.08 in 9.0 mi NW 15.0 mph - N/A   Scattered Clouds
9:35 AM 44.6 °F 37.8 °F 39.2 °F 81% 30.09 in 9.0 mi NNW 15.0 mph - N/A   Mostly Cloudy
9:55 AM 44.6 °F 37.4 °F 39.2 °F 81% 30.10 in 10.0 mi NW 16.1 mph 24.2 mph N/A   Overcast
10:15 AM 46.4 °F 39.2 °F 39.2 °F 76% 30.09 in 10.0 mi NNW 18.4 mph - N/A   Mostly Cloudy
10:35 AM 46.4 °F 39.5 °F 37.4 °F 71% 30.10 in 10.0 mi NNW 17.3 mph - N/A   Mostly Cloudy
10:55 AM 46.4 °F 40.7 °F 37.4 °F 71% 30.10 in 10.0 mi NNW 12.7 mph 19.6 mph N/A   Mostly Cloudy
12:15 PM 50.0 °F - 35.6 °F 58% 30.12 in 10.0 mi NW 12.7 mph 19.6 mph N/A   Scattered Clouds
12:35 PM 50.0 °F - 35.6 °F 58% 30.12 in 10.0 mi NW 17.3 mph - N/A   Mostly Cloudy
12:55 PM 50.0 °F - 33.8 °F 54% 30.12 in 10.0 mi NW 16.1 mph 24.2 mph N/A   Mostly Cloudy
1:15 PM 50.0 °F - 33.8 °F 54% 30.12 in 10.0 mi NW 13.8 mph 21.9 mph N/A   Scattered Clouds
1:35 PM 50.0 °F - 32.0 °F 50% 30.12 in 10.0 mi NW 13.8 mph 21.9 mph N/A   Partly Cloudy
1:55 PM 50.0 °F - 33.8 °F 54% 30.11 in 10.0 mi NW 11.5 mph 25.3 mph N/A   Scattered Clouds
2:15 PM 51.8 °F - 32.0 °F 47% 30.11 in 10.0 mi NNW 12.7 mph - N/A   Partly Cloudy
2:35 PM 51.8 °F - 30.2 °F 44% 30.11 in 10.0 mi NNW 13.8 mph 20.7 mph N/A   Partly Cloudy
2:55 PM 51.8 °F - 30.2 °F 44% 30.12 in 10.0 mi NNW 13.8 mph 21.9 mph N/A   Clear
3:15 PM 51.8 °F - 30.2 °F 44% 30.12 in 10.0 mi NW 11.5 mph 18.4 mph N/A   Clear
3:35 PM 53.6 °F - 32.0 °F 44% 30.12 in 10.0 mi NW 11.5 mph - N/A   Clear
3:55 PM 53.6 °F - 30.2 °F 41% 30.11 in 10.0 mi NW 15.0 mph - N/A   Partly Cloudy
4:15 PM 51.8 °F - 30.2 °F 44% 30.12 in 10.0 mi WNW 12.7 mph 19.6 mph N/A   Partly Cloudy
4:35 PM 53.6 °F - 32.0 °F 44% 30.12 in 10.0 mi NW 10.4 mph - N/A   Partly Cloudy
4:55 PM 51.8 °F - 32.0 °F 47% 30.12 in 10.0 mi NW 11.5 mph - N/A   Partly Cloudy
5:15 PM 51.8 °F - 32.0 °F 47% 30.12 in 10.0 mi NW 10.4 mph - N/A   Partly Cloudy
5:35 PM 50.0 °F - 32.0 °F 50% 30.12 in 10.0 mi NW 8.1 mph - N/A   Clear
5:55 PM 48.2 °F - 32.0 °F 54% 30.12 in 10.0 mi NW 5.8 mph - N/A   Clear
6:15 PM 48.2 °F - 30.2 °F 50% 30.12 in 9.0 mi WNW 4.6 mph - N/A   Clear
6:35 PM 48.2 °F - 30.2 °F 50% 30.13 in 10.0 mi West 3.5 mph - N/A   Clear
6:55 PM 46.4 °F 44.3 °F 30.2 °F 53% 30.13 in 10.0 mi West 4.6 mph - N/A   Clear
7:15 PM 46.4 °F 45.2 °F 30.2 °F 53% 30.14 in 10.0 mi WNW 3.5 mph - N/A   Clear
7:35 PM 46.4 °F 44.3 °F 30.2 °F 53% 30.14 in 10.0 mi SW 4.6 mph - N/A   Clear
7:55 PM 44.6 °F 42.2 °F 30.2 °F 57% 30.14 in 10.0 mi SW 4.6 mph - N/A   Partly Cloudy
8:15 PM 42.8 °F 41.1 °F 30.2 °F 61% 30.14 in 10.0 mi SW 3.5 mph - N/A   Partly Cloudy
8:35 PM 39.2 °F 35.9 °F 32.0 °F 75% 30.14 in 10.0 mi SSW 4.6 mph - N/A   Clear
8:55 PM 39.2 °F 37.0 °F 32.0 °F 75% 30.14 in 10.0 mi SSW 3.5 mph - N/A   Clear
9:15 PM 39.2 °F 37.0 °F 32.0 °F 75% 30.13 in 10.0 mi SSW 3.5 mph - N/A   Clear
9:35 PM 39.2 °F 35.9 °F 32.0 °F 75% 30.13 in 10.0 mi SW 4.6 mph - N/A   Partly Cloudy
9:55 PM 37.4 °F 33.8 °F 32.0 °F 81% 30.14 in 10.0 mi SW 4.6 mph - N/A   Partly Cloudy
10:15 PM 37.4 °F 34.9 °F 32.0 °F 81% 30.14 in 10.0 mi SSW 3.5 mph - N/A   Clear
10:35 PM 37.4 °F 33.8 °F 32.0 °F 81% 30.15 in 10.0 mi SW 4.6 mph - N/A   Partly Cloudy
10:55 PM 37.4 °F 32.1 °F 32.0 °F 81% 30.15 in 10.0 mi SSW 6.9 mph - N/A   Partly Cloudy
11:15 PM 35.6 °F 29.9 °F 32.0 °F 87% 30.15 in 10.0 mi SSW 6.9 mph - N/A   Clear
11:35 PM 35.6 °F 30.7 °F 32.0 °F 87% 30.15 in 10.0 mi South 5.8 mph - N/A Snow Light Snow
11:55 PM 35.6 °F 29.9 °F 32.0 °F 87% 30.14 in 10.0 mi SSW 6.9 mph - N/A Snow Light Snow